FENGYUN 1C DEB

Satellite information

Favourite Embed

Satellite Type and Status

DEBRISIN ORBIT

Key statistics

Satellite FENGYUN 1C DEB at a glance.

Uptime

9619

Days in orbit

Revolutions

≈ 13.5

Per day

Orbit

SSO

Sun Synchronous Orbit

Inclination

101.9

Latest

Satellite identification and parameters

Extended collection of information and parameters for FENGYUN 1C DEB.

Object identification

Identified? True

Debris? True

Object name: FENGYUN 1C DEB

International designator: 1999-025PN

Object number (NORAD): 30061

Object ID (CCSDS): 30061

Country: PEOPLES REPUBLIC OF CHINA (PRC)

Current information (Y/N): Y

RCS size: SMALL

Orbital parameters

Period: 106.989 minutes

Inclination: 101.8751 deg

SMA: 7465.383 km

Apoapsis: 1366.817 km

Periapsis: 807.679 km

RAAN: 343.2988 deg

Eccentricy: 0.0374487

Argument of periapsis: 107.6922 deg

Mean anomaly: 283.2839 deg

Mean motion: 13.45936712 rev/day

Mean motion (dot): 0.00002094 rev/day2

B* drag term: 0.0023553344 1/REarth

Two-line elements (TLE)

Creation date: Sept. 8, 2025, 9:49 a.m.

Reference frame: TEME

Reference center: EARTH

Epoch: Sept. 8, 2025, 5:36 a.m. UTC

TLE line 0: 0 FENGYUN 1C DEB

TLE line 1: 1 30061U 99025PN 25251.23346134 .00002094 00000-0 23553-2 0 9991

TLE line 2: 2 30061 101.8751 343.2988 0374487 107.6922 283.2839 13.45936712908140

Live tracking on map

Real-time ground track for satellite FENGYUN 1C DEB.

In-orbit conjunctions

A list of the most updated potential collisions computed for object FENGYUN 1C DEB.

Target Orbit TCA Probability of collision Miss distance Type
SL-14 DEB LEO 2025-05-22 11:15:38 0.0001385152 384.0 (m) DEBRIS

Associated space launch

Chinese polar orbiting meteorological satellite

FENGYUN 1C DEB was lifted into orbit during the mission ‘Long March 4B | Feng Yun 1C’, on board a Long March 4B space rocket.

The launch took place on May 10, 1999, 1:33 a.m. from Launch Complex 7.

For more information about the launch, click the button.

Launch to space Long March 4B | Feng Yun 1C
Long March 4B | Feng Yun 1C

Agency: N/A

Status: Launch Successful

Launch date: May 10, 1999, 1:33 a.m. UTC

Rocket: Long March 4B

Launch pad: Launch Complex 7

Location: Taiyuan Satellite Launch Center, People's Republic of China

...

Latest news about this satellite

There are no fresh news available about this satellite. Check back as we update our databases every day.


Newsletter sign-up

Weekly statistics, charts and insights to help you stay on top of the space industry.